Regional Weather Roundup
Issued by NWS

Home | Current Version | Previous Version | Graphics & Text | Print | Product List | Glossary On
Versions: 1 2 3 4 5 6 7 8 9 10 11 12 13 14 15 16 17 18 19 20 21 22 23 24 25 26 27 28 29 30 31 32 33 34 35 36 37 38 39 40 41 42 43 44 45 46 47 48 49 50
000
ASUS45 KCYS 241110
RWRWY

WYOMING REGIONAL WEATHER ROUNDUP
NATIONAL WEATHER SERVICE CHEYENNE WY
400 AM MST SAT FEB 24 2018

NOTE:  "FAIR" INDICATES FEW OR NO CLOUDS BELOW 12,000 FEET
WITH NO SIGNIFICANT WEATHER AND/OR OBSTRUCTIONS TO VISIBILITY.

WYZ001-241200-
YELLOWSTONE NATIONAL PARK

CITY           SKY/WX    TMP DP  RH WIND       PRES   REMARKS
LK YELLOWSTONE   N/A      2  -3  80 VRB3      29.81F
W YELLOWSTONE  NOT AVBL

$$
WYZ002>013-054>058-071-098>099-241200-
NORTHERN WYOMING

CITY           SKY/WX    TMP DP  RH WIND       PRES   REMARKS
JACKSON        LGT SNOW   8   4  83 SW7       29.91F FOG     WCI  -3
CODY           FAIR      20   3  48 W18G38    29.76F WCI   5
GREYBULL       FAIR     -13 -17  82 MISG      29.84F
WORLAND        FAIR     -11 -14  86 CALM      29.82S
SHERIDAN       FAIR       3  -7  63 VRB3      29.75S
BUFFALO        FAIR      12  -3  51 NW9       29.70F WCI   0
GILLETTE       FAIR       4   1  88 VRB3      29.73F
HULETT         PTSUNNY   21  16  79 MISG      29.74F
NEWCASTLE      PTSUNNY   14   7  73 SE8       29.78F WCI   3

$$
WYZ014>020-022>026-101>103-241200-
CENTRAL WYOMING

CITY           SKY/WX    TMP DP  RH WIND       PRES   REMARKS
BIG PINEY      CLOUDY    -4 -10  75 SW5       29.89F WCI -15
PINEDALE       CLOUDY    -6  -9  84 NW5       29.88F WCI -17
DUBOIS           N/A    N/A N/A N/A MISG        N/A
LANDER         FAIR       9  -2  61 SW10      29.77F WCI  -5
RIVERTON       FAIR       7  -7  52 W15       29.77F WCI -10
CASPER         FAIR       5   3  91 SW9       29.78S WCI  -9
DOUGLAS        FAIR      -2  -5  87 CALM      29.77F FOG

$$
WYZ021-027>030-104>119-241200-
SOUTHERN WYOMING

CITY           SKY/WX    TMP DP  RH WIND       PRES   REMARKS
EVANSTON       FLURRIES   6   3  87 SW10      29.96S WCI  -9
ROCK SPRINGS   FAIR       6   0  76 SW24G31   29.90F WCI -16
DIXON          PTSUNNY   11   4  73 SW7       29.94S WCI   0
RAWLINS        MOCLDY     7   0  73 W24       29.82R WCI -14
SARATOGA       FAIR      10   3  72 W10G18    29.83S WCI  -3
LARAMIE        FAIR       9  -1  64 W13       29.73R WCI  -7
CHEYENNE       FAIR      16  14  92 NW8       29.74F WCI   5
TORRINGTON     CLOUDY    18  18 100 E5        29.78F FOG     WCI  11
PINE BLUFFS    CLOUDY    21  21 100 SW5       29.79S FOG     WCI  15

$$



USA.gov is the U.S. government's official web portal to all federal, state and local government web resources and services.